Location: Palomar Observatory
(33.3560°N, 116.8630°W)
Time: 22:15:30
(UTC-07:00)

Iridium 57 - Visible Passes

Search period start: 24 July 2014 00:00
Search period end: 03 August 2014 00:00
Orbit: 776 x 779 km, 86.4° (Epoch: 24 July)

Date Brightness Start Highest point End Pass type
(mag) Time Alt. Az. Time Alt. Az. Time Alt. Az.
24 Jul 6.5 04:58:31 10° SSE 05:03:31 50° E 05:08:32 10° NNE visible
25 Jul 7.7 04:25:57 10° SE 04:30:11 26° E 04:34:25 10° NNE visible
26 Jul 8.3 03:54:36 10° ESE 03:56:57 13° E 03:59:18 10° NE visible
27 Jul 5.7 04:58:23 10° S 05:03:34 76° E 05:08:46 10° N visible
28 Jul 6.9 04:25:23 10° SSE 04:30:09 38° E 04:34:56 10° NNE visible
29 Jul 7.9 03:53:10 10° SE 03:56:51 20° E 04:00:33 10° NE visible
29 Jul 6.2 05:32:29 10° SSW 05:37:14 36° W 05:42:01 10° NNW visible
30 Jul 5.5 04:58:28 10° S 05:03:39 72° W 05:08:51 10° N visible
31 Jul 6.1 04:25:05 10° SSE 04:30:10 58° E 04:35:16 10° N visible
01 Aug 7.3 03:52:21 10° SE 03:56:48 30° E 04:01:16 10° NNE visible
02 Aug 8.1 03:20:38 10° ESE 03:23:33 15° E 03:26:29 10° NE visible
02 Aug 5.8 04:58:47 10° SSW 05:03:46 47° W 05:08:47 10° NNW visible
